EZY38EW EGCC-BIAR

Flight info

Callsign EZY38EW
Flight time 2h 40m
Altitude 36000
Route POL N601 ERGAB DCT ERSON DCT BESGA DCT MATIK/M076F360 DCT 62N010W DCT MAMEP MAMEP1N
Aircraft A320/M-SDE3FGHIRWY/LB1

Departure

Time 2026-04-20 22:05
Airport Manchester Airport (EGCC)

Arrival

Time 2026-04-21 00:46
Airport Akureyri International Airport (BIAR)
Time Latitude Longitude Altitude Speed Heading
2026-04-20 21:38 53.36585 -2.28379 255 ft 0 kts 315°
2026-04-20 21:53 53.36584 -2.28377 255 ft 2 kts 315°
2026-04-20 21:53 53.36565 -2.28346 255 ft 4 kts 315°
2026-04-20 21:53 53.36546 -2.28314 255 ft 4 kts 315°
2026-04-20 21:54 53.36528 -2.28282 255 ft 3 kts 315°
2026-04-20 21:54 53.36517 -2.28259 255 ft 4 kts 259°
2026-04-20 21:54 53.36528 -2.28227 255 ft 2 kts 224°
2026-04-20 21:54 53.36513 -2.28250 255 ft 4 kts 224°
2026-04-20 21:55 53.36494 -2.28282 255 ft 4 kts 224°
2026-04-20 21:55 53.36474 -2.28314 255 ft 4 kts 224°
2026-04-20 21:55 53.36455 -2.28345 255 ft 3 kts 224°
2026-04-20 21:55 53.36453 -2.28349 255 ft 0 kts 224°
2026-04-20 21:58 53.36452 -2.28350 255 ft 1 kts 224°
2026-04-20 21:58 53.36434 -2.28380 260 ft 0 kts 224°
2026-04-20 21:58 53.36433 -2.28381 260 ft 1 kts 224°
2026-04-20 21:59 53.36385 -2.28454 255 ft 13 kts 216°
2026-04-20 21:59 53.36315 -2.28420 255 ft 11 kts 135°
2026-04-20 21:59 53.36262 -2.28330 255 ft 11 kts 135°
2026-04-20 21:59 53.36208 -2.28240 255 ft 11 kts 135°
2026-04-20 22:00 53.36154 -2.28147 255 ft 11 kts 134°
2026-04-20 22:00 53.36091 -2.28045 255 ft 14 kts 138°
2026-04-20 22:00 53.36016 -2.27934 255 ft 15 kts 139°
2026-04-20 22:00 53.35922 -2.27850 255 ft 16 kts 172°
2026-04-20 22:01 53.35808 -2.27862 250 ft 17 kts 185°
2026-04-20 22:01 53.35678 -2.27886 243 ft 20 kts 186°
2026-04-20 22:01 53.35592 -2.27929 238 ft 10 kts 236°
2026-04-20 22:01 53.35544 -2.28055 237 ft 18 kts 231°
2026-04-20 22:02 53.35423 -2.28160 238 ft 19 kts 187°
2026-04-20 22:02 53.35296 -2.28217 233 ft 19 kts 209°
2026-04-20 22:02 53.35202 -2.28360 231 ft 18 kts 232°
2026-04-20 22:02 53.35121 -2.28531 227 ft 18 kts 231°
2026-04-20 22:03 53.35049 -2.28676 229 ft 15 kts 230°
2026-04-20 22:03 53.34954 -2.28847 226 ft 24 kts 225°
2026-04-20 22:03 53.34826 -2.29071 218 ft 30 kts 229°
2026-04-20 22:03 53.34696 -2.29317 210 ft 20 kts 214°
2026-04-20 22:04 53.34675 -2.29332 211 ft 1 kts 198°
2026-04-20 22:04 53.34605 -2.29340 213 ft 17 kts 171°
2026-04-20 22:04 53.34533 -2.29229 214 ft 14 kts 66°
2026-04-20 22:04 53.34616 -2.29063 214 ft 29 kts 50°
2026-04-20 22:05 53.34893 -2.28492 231 ft 95 kts 51°
2026-04-20 22:05 53.35428 -2.27381 249 ft 147 kts 51°
2026-04-20 22:05 53.36104 -2.25971 655 ft 159 kts 53°
2026-04-20 22:05 53.36798 -2.24514 1377 ft 162 kts 53°
2026-04-20 22:06 53.37495 -2.23041 1988 ft 165 kts 55°
2026-04-20 22:06 53.38209 -2.21502 2574 ft 170 kts 54°
2026-04-20 22:06 53.38939 -2.19919 3148 ft 173 kts 53°
2026-04-20 22:06 53.39682 -2.18310 3711 ft 177 kts 53°
2026-04-20 22:07 53.40464 -2.16618 4107 ft 190 kts 53°
2026-04-20 22:07 53.41302 -2.14805 4510 ft 203 kts 52°
2026-04-20 22:07 53.42197 -2.12865 4890 ft 219 kts 52°
2026-04-20 22:07 53.43191 -2.10794 5303 ft 238 kts 44°
2026-04-20 22:08 53.44686 -2.09486 5696 ft 254 kts
2026-04-20 22:08 53.46480 -2.09597 6093 ft 261 kts 355°
2026-04-20 22:08 53.48287 -2.09838 6541 ft 260 kts 360°
2026-04-20 22:08 53.50113 -2.09914 7324 ft 264 kts
2026-04-20 22:09 53.51958 -2.09955 8126 ft 267 kts
2026-04-20 22:09 53.53823 -2.09982 8942 ft 270 kts
2026-04-20 22:09 53.55713 -2.10006 9760 ft 273 kts
2026-04-20 22:09 53.57595 -2.10031 10526 ft 277 kts
2026-04-20 22:10 53.59599 -2.10056 10781 ft 300 kts
2026-04-20 22:10 53.61759 -2.10081 11078 ft 318 kts
2026-04-20 22:10 53.64000 -2.10116 11690 ft 325 kts
2026-04-20 22:10 53.66281 -2.10162 12367 ft 331 kts
2026-04-20 22:11 53.68600 -2.10215 13031 ft 336 kts
2026-04-20 22:11 53.70954 -2.10268 13686 ft 340 kts
2026-04-20 22:11 53.73340 -2.10420 14279 ft 347 kts 355°
2026-04-20 22:11 53.75722 -2.11274 14827 ft 354 kts 344°
2026-04-20 22:12 53.78027 -2.12785 15432 ft 357 kts 340°
2026-04-20 22:12 53.80339 -2.14372 16027 ft 360 kts 339°
2026-04-20 22:12 53.82635 -2.15949 16651 ft 362 kts 339°
2026-04-20 22:12 53.84972 -2.17552 17268 ft 364 kts 339°
2026-04-20 22:13 53.87331 -2.19164 17862 ft 366 kts 339°
2026-04-20 22:13 53.89701 -2.20778 18452 ft 369 kts 339°
2026-04-20 22:13 53.92089 -2.22405 19001 ft 371 kts 339°
2026-04-20 22:13 53.94488 -2.24044 19539 ft 373 kts 338°
2026-04-20 22:14 53.96900 -2.25698 20098 ft 374 kts 338°
2026-04-20 22:14 53.99315 -2.27360 20638 ft 376 kts 338°
2026-04-20 22:14 54.01745 -2.29039 21151 ft 378 kts 338°
2026-04-20 22:14 54.04189 -2.30732 21674 ft 380 kts 338°
2026-04-20 22:15 54.06644 -2.32434 22216 ft 382 kts 338°
2026-04-20 22:15 54.09076 -2.34121 22755 ft 382 kts 338°
2026-04-20 22:15 54.11538 -2.35831 23288 ft 384 kts 338°
2026-04-20 22:15 54.14019 -2.37553 23771 ft 387 kts 338°
2026-04-20 22:16 54.16519 -2.39309 24183 ft 389 kts 336°
2026-04-20 22:16 54.19003 -2.41161 24582 ft 390 kts 335°
2026-04-20 22:16 54.21475 -2.43093 24966 ft 392 kts 334°
2026-04-20 22:16 54.23959 -2.45083 25272 ft 396 kts 335°
2026-04-20 22:17 54.26467 -2.47104 25543 ft 401 kts 335°
2026-04-20 22:17 54.28997 -2.49130 25922 ft 402 kts 335°
2026-04-20 22:17 54.31538 -2.51149 26306 ft 403 kts 335°
2026-04-20 22:17 54.34097 -2.53170 26630 ft 406 kts 335°
2026-04-20 22:18 54.36631 -2.55164 26947 ft 408 kts 335°
2026-04-20 22:18 54.39224 -2.57203 27281 ft 410 kts 335°
2026-04-20 22:18 54.41821 -2.59247 27621 ft 411 kts 334°
2026-04-20 22:18 54.44426 -2.61307 27933 ft 414 kts 334°
2026-04-20 22:19 54.47046 -2.63387 28203 ft 417 kts 334°
2026-04-20 22:19 54.49697 -2.65490 28406 ft 422 kts 335°
2026-04-20 22:19 54.52375 -2.67620 28672 ft 425 kts 335°
2026-04-20 22:19 54.55056 -2.69758 29016 ft 425 kts 334°
2026-04-20 22:20 54.57744 -2.71905 29332 ft 427 kts 334°
2026-04-20 22:20 54.60409 -2.74039 29611 ft 429 kts 334°
2026-04-20 22:20 54.63117 -2.76210 29877 ft 430 kts 334°
2026-04-20 22:20 54.65837 -2.78390 30173 ft 432 kts 334°
2026-04-20 22:21 54.68570 -2.80578 30424 ft 434 kts 334°
2026-04-20 22:21 54.71317 -2.82778 30614 ft 436 kts 334°
2026-04-20 22:21 54.74075 -2.84995 30788 ft 439 kts 334°
2026-04-20 22:21 54.76859 -2.87237 30934 ft 442 kts 334°
2026-04-20 22:22 54.79654 -2.89497 31088 ft 445 kts 334°
2026-04-20 22:22 54.82464 -2.91774 31314 ft 446 kts 334°
2026-04-20 22:22 54.85267 -2.94047 31581 ft 445 kts 334°
2026-04-20 22:22 54.88076 -2.96327 31849 ft 445 kts 334°
2026-04-20 22:23 54.90878 -2.98606 32092 ft 445 kts 334°
2026-04-20 22:23 54.93650 -3.00858 32325 ft 446 kts 334°
2026-04-20 22:23 54.96455 -3.03137 32589 ft 445 kts 334°
2026-04-20 22:23 54.99268 -3.05424 32822 ft 446 kts 335°
2026-04-20 22:24 55.02079 -3.07719 33018 ft 448 kts 335°
2026-04-20 22:24 55.04902 -3.10028 33271 ft 448 kts 335°
2026-04-20 22:24 55.07720 -3.12337 33526 ft 448 kts 335°
2026-04-20 22:24 55.10539 -3.14655 33793 ft 447 kts 335°
2026-04-20 22:25 55.13353 -3.16977 34052 ft 447 kts 335°
2026-04-20 22:25 55.16164 -3.19301 34301 ft 447 kts 335°
2026-04-20 22:25 55.18978 -3.21628 34533 ft 447 kts 335°
2026-04-20 22:25 55.21790 -3.23950 34761 ft 446 kts 335°
2026-04-20 22:26 55.24595 -3.26270 34970 ft 446 kts 335°
2026-04-20 22:26 55.27366 -3.28565 35148 ft 446 kts 335°
2026-04-20 22:26 55.30172 -3.30889 35352 ft 446 kts 335°
2026-04-20 22:27 55.35779 -3.35541 35737 ft 445 kts 335°
2026-04-20 22:27 55.38577 -3.37868 35914 ft 445 kts 335°
2026-04-20 22:27 55.41374 -3.40202 36099 ft 445 kts 335°
2026-04-20 22:27 55.44162 -3.42537 36307 ft 443 kts 335°
2026-04-20 22:28 55.46950 -3.44879 36408 ft 443 kts 335°
2026-04-20 22:28 55.49735 -3.47220 36435 ft 443 kts 336°
2026-04-20 22:28 55.55296 -3.51895 36434 ft 442 kts 336°
2026-04-20 22:29 55.60853 -3.56580 36432 ft 443 kts 335°
2026-04-20 22:29 55.66371 -3.61264 36440 ft 442 kts 335°
2026-04-20 22:30 55.71922 -3.65985 36449 ft 442 kts 335°
2026-04-20 22:30 55.77470 -3.70709 36445 ft 443 kts 336°
2026-04-20 22:31 55.83028 -3.75453 36443 ft 443 kts 336°
2026-04-20 22:31 55.88584 -3.80223 36433 ft 443 kts 335°
2026-04-20 22:32 55.94107 -3.84986 36450 ft 444 kts 335°
2026-04-20 22:32 55.99672 -3.89785 36455 ft 444 kts 335°
2026-04-20 22:33 56.05241 -3.94593 36458 ft 445 kts 335°
2026-04-20 22:33 56.10808 -3.99421 36456 ft 445 kts 336°
2026-04-20 22:34 56.16369 -4.04272 36465 ft 444 kts 335°
2026-04-20 22:34 56.21920 -4.09136 36464 ft 444 kts 336°
2026-04-20 22:35 56.27439 -4.13973 36449 ft 444 kts 335°
2026-04-20 22:35 56.32999 -4.18867 36452 ft 445 kts 335°
2026-04-20 22:36 56.38562 -4.23771 36458 ft 445 kts 335°
2026-04-20 22:36 56.44126 -4.28691 36459 ft 445 kts 335°
2026-04-20 22:37 56.49726 -4.33457 36465 ft 445 kts 338°
2026-04-20 22:37 56.55476 -4.37589 36465 ft 445 kts 341°
2026-04-20 22:38 56.61213 -4.41559 36455 ft 444 kts 340°
2026-04-20 22:38 56.66968 -4.45710 36461 ft 445 kts 339°
2026-04-20 22:39 56.72700 -4.49978 36461 ft 445 kts 339°
2026-04-20 22:39 56.78429 -4.54271 36454 ft 445 kts 340°
2026-04-20 22:40 56.84163 -4.58539 36461 ft 445 kts 340°
2026-04-20 22:40 56.89908 -4.62810 36467 ft 446 kts 340°
2026-04-20 22:41 56.95607 -4.67072 36469 ft 446 kts 340°
2026-04-20 22:41 57.01350 -4.71380 36466 ft 446 kts 340°
2026-04-20 22:42 57.07084 -4.75700 36458 ft 446 kts 340°
2026-04-20 22:42 57.12820 -4.80038 36467 ft 446 kts 340°
2026-04-20 22:43 57.18516 -4.84359 36463 ft 446 kts 340°
2026-04-20 22:43 57.24247 -4.88717 36470 ft 446 kts 340°
2026-04-20 22:44 57.29982 -4.93095 36467 ft 446 kts 340°
2026-04-20 22:44 57.35713 -4.97479 36474 ft 446 kts 340°
2026-04-20 22:45 57.41444 -5.01888 36480 ft 446 kts 340°
2026-04-20 22:45 57.47170 -5.06312 36473 ft 446 kts 340°
2026-04-20 22:46 57.52851 -5.10718 36479 ft 446 kts 340°
2026-04-20 22:46 57.58570 -5.15171 36474 ft 445 kts 340°
2026-04-20 22:47 57.64279 -5.19621 36476 ft 444 kts 340°
2026-04-20 22:47 57.69985 -5.24069 36478 ft 444 kts 340°
2026-04-20 22:48 57.75683 -5.28537 36481 ft 444 kts 340°
2026-04-20 22:48 57.81376 -5.33026 36481 ft 444 kts 340°
2026-04-20 22:49 57.87064 -5.37519 36476 ft 443 kts 340°
2026-04-20 22:49 57.92704 -5.41992 36487 ft 442 kts 340°
2026-04-20 22:50 57.98374 -5.46500 36485 ft 442 kts 340°
2026-04-20 22:50 58.04037 -5.51003 36493 ft 442 kts 340°
2026-04-20 22:51 58.09695 -5.55545 36477 ft 442 kts 341°
2026-04-20 22:51 58.15310 -5.60065 36487 ft 441 kts 341°
2026-04-20 22:52 58.20963 -5.64625 36491 ft 441 kts 341°
2026-04-20 22:52 58.26604 -5.69187 36499 ft 441 kts 341°
2026-04-20 22:53 58.32244 -5.73765 36498 ft 441 kts 340°
2026-04-20 22:53 58.36930 -5.77585 36487 ft 441 kts 341°
2026-04-20 22:54 58.42560 -5.82194 36510 ft 440 kts 341°
2026-04-20 22:54 58.49098 -5.87570 36527 ft 440 kts 341°
2026-04-20 22:55 58.53813 -5.91440 36527 ft 440 kts 341°
2026-04-20 22:55 58.59397 -5.96034 36535 ft 440 kts 341°
2026-04-20 22:56 58.65010 -6.00695 36537 ft 439 kts 341°
2026-04-20 22:56 58.70620 -6.05364 36535 ft 439 kts 341°
2026-04-20 22:57 58.76226 -6.10038 36530 ft 439 kts 341°
2026-04-20 22:57 58.81830 -6.14733 36529 ft 439 kts 341°
2026-04-20 22:58 58.87386 -6.19412 36527 ft 439 kts 340°
2026-04-20 22:58 58.92979 -6.24141 36526 ft 438 kts 341°
2026-04-20 22:59 58.98566 -6.28866 36534 ft 438 kts 341°
2026-04-20 22:59 59.04144 -6.33589 36545 ft 437 kts 341°
2026-04-20 23:00 59.09719 -6.38343 36549 ft 437 kts 341°
2026-04-20 23:00 59.15247 -6.43083 36545 ft 437 kts 341°
2026-04-20 23:01 59.20805 -6.47862 36541 ft 436 kts 341°
2026-04-20 23:01 59.26353 -6.52643 36560 ft 436 kts 341°
2026-04-20 23:02 59.31899 -6.57432 36566 ft 435 kts 341°
2026-04-20 23:02 59.37442 -6.62240 36571 ft 435 kts 341°
2026-04-20 23:03 59.42978 -6.67052 36573 ft 435 kts 341°
2026-04-20 23:03 59.48469 -6.71860 36574 ft 434 kts 341°
2026-04-20 23:04 59.53984 -6.76707 36584 ft 434 kts 341°
2026-04-20 23:04 59.59488 -6.81564 36593 ft 433 kts 341°
2026-04-20 23:05 59.64981 -6.86424 36595 ft 432 kts 341°
2026-04-20 23:05 59.70469 -6.91279 36576 ft 432 kts 341°
2026-04-20 23:06 59.75912 -6.96110 36584 ft 431 kts 342°
2026-04-20 23:06 59.81372 -7.00997 36591 ft 430 kts 341°
2026-04-20 23:07 59.86821 -7.05888 36598 ft 429 kts 341°
2026-04-20 23:07 59.92260 -7.10782 36600 ft 429 kts 341°
2026-04-20 23:08 59.97694 -7.15684 36597 ft 428 kts 341°
2026-04-20 23:08 60.03080 -7.20566 36596 ft 427 kts 342°
2026-04-20 23:09 60.08482 -7.25484 36608 ft 426 kts 342°
2026-04-20 23:09 60.13874 -7.30413 36615 ft 425 kts 342°
2026-04-20 23:10 60.19253 -7.35351 36614 ft 425 kts 342°
2026-04-20 23:10 60.24634 -7.40280 36622 ft 425 kts 342°
2026-04-20 23:11 60.29967 -7.45191 36610 ft 424 kts 342°
2026-04-20 23:11 60.35323 -7.50147 36630 ft 423 kts 342°
2026-04-20 23:12 60.40662 -7.55119 36632 ft 422 kts 342°
2026-04-20 23:12 60.45988 -7.60096 36629 ft 421 kts 342°
2026-04-20 23:13 60.51311 -7.65075 36624 ft 421 kts 342°
2026-04-20 23:13 60.56619 -7.70073 36613 ft 420 kts 342°
2026-04-20 23:14 60.61882 -7.75044 36623 ft 419 kts 342°
2026-04-20 23:14 60.67172 -7.80053 36626 ft 419 kts 342°
2026-04-20 23:15 60.72449 -7.85045 36627 ft 418 kts 342°
2026-04-20 23:15 60.77726 -7.90074 36634 ft 418 kts 342°
2026-04-20 23:16 60.83105 -7.94297 36610 ft 413 kts 347°
2026-04-20 23:16 60.88477 -7.98214 36627 ft 412 kts 347°
2026-04-20 23:17 60.93877 -8.02164 36638 ft 412 kts 347°
2026-04-20 23:17 60.99221 -8.06515 36639 ft 419 kts 338°
2026-04-20 23:18 61.03921 -8.13941 36633 ft 431 kts 325°
2026-04-20 23:18 61.08379 -8.22233 36634 ft 431 kts 326°
2026-04-20 23:19 61.12811 -8.30462 36633 ft 431 kts 325°
2026-04-20 23:19 61.17259 -8.38757 36637 ft 430 kts 326°
2026-04-20 23:20 61.21693 -8.47079 36659 ft 430 kts 325°
2026-04-20 23:20 61.26116 -8.55410 36662 ft 429 kts 325°
2026-04-20 23:21 61.30526 -8.63785 36663 ft 429 kts 325°
2026-04-20 23:21 61.34927 -8.72176 36663 ft 429 kts 325°
2026-04-20 23:22 61.39293 -8.80514 36665 ft 429 kts 325°
2026-04-20 23:22 61.43687 -8.88930 36670 ft 428 kts 325°
2026-04-20 23:23 61.48069 -8.97362 36664 ft 428 kts 325°
2026-04-20 23:23 61.52444 -9.05822 36656 ft 428 kts 325°
2026-04-20 23:24 61.56813 -9.14305 36652 ft 428 kts 325°
2026-04-20 23:24 61.61148 -9.22749 36638 ft 428 kts 325°
2026-04-20 23:25 61.65503 -9.31260 36640 ft 427 kts 325°
2026-04-20 23:25 61.69854 -9.39795 36661 ft 427 kts 324°
2026-04-20 23:26 61.74191 -9.48359 36665 ft 427 kts 324°
2026-04-20 23:26 61.78526 -9.56938 36668 ft 427 kts 324°
2026-04-20 23:27 61.82823 -9.65468 36676 ft 427 kts 324°
2026-04-20 23:27 61.87138 -9.74088 36675 ft 427 kts 324°
2026-04-20 23:28 61.91449 -9.82743 36643 ft 427 kts 324°
2026-04-20 23:28 61.95763 -9.91404 36664 ft 427 kts 324°
2026-04-20 23:29 62.00079 -10.00060 36671 ft 424 kts 327°
2026-04-20 23:29 62.04679 -10.07796 36675 ft 421 kts 329°
2026-04-20 23:30 62.09294 -10.15493 36659 ft 421 kts 329°
2026-04-20 23:30 62.13876 -10.23152 36671 ft 421 kts 329°
2026-04-20 23:31 62.18482 -10.30901 36667 ft 421 kts 329°
2026-04-20 23:31 62.23073 -10.38672 36681 ft 420 kts 329°
2026-04-20 23:32 62.27656 -10.46459 36689 ft 420 kts 329°
2026-04-20 23:32 62.32239 -10.54253 36693 ft 420 kts 329°
2026-04-20 23:33 62.36811 -10.62078 36698 ft 420 kts 328°
2026-04-20 23:33 62.41348 -10.69873 36699 ft 420 kts 328°
2026-04-20 23:34 62.45909 -10.77739 36698 ft 419 kts 328°
2026-04-20 23:34 62.50454 -10.85625 36708 ft 419 kts 328°
2026-04-20 23:35 62.57262 -10.97473 36715 ft 418 kts 328°
2026-04-20 23:36 62.61792 -11.05389 36719 ft 418 kts 328°
2026-04-20 23:36 62.66289 -11.13279 36711 ft 418 kts 328°
2026-04-20 23:37 62.70807 -11.21252 36676 ft 418 kts 327°
2026-04-20 23:37 62.75311 -11.29231 36702 ft 417 kts 327°
2026-04-20 23:38 62.79804 -11.37221 36722 ft 416 kts 327°
2026-04-20 23:38 62.84287 -11.45229 36726 ft 416 kts 327°
2026-04-20 23:39 62.88764 -11.53268 36728 ft 416 kts 327°
2026-04-20 23:39 62.93209 -11.61252 36727 ft 416 kts 327°
2026-04-20 23:40 62.97674 -11.69309 36709 ft 415 kts 326°
2026-04-20 23:40 63.02130 -11.77398 36727 ft 415 kts 326°
2026-04-20 23:41 63.06572 -11.85506 36734 ft 414 kts 326°
2026-04-20 23:41 63.11007 -11.93619 36733 ft 414 kts 326°
2026-04-20 23:42 63.15438 -12.01742 36737 ft 414 kts 326°
2026-04-20 23:42 63.19832 -12.09852 36737 ft 414 kts 326°
2026-04-20 23:43 63.24250 -12.18034 36727 ft 413 kts 325°
2026-04-20 23:43 63.28656 -12.26222 36717 ft 413 kts 325°
2026-04-20 23:44 63.33057 -12.34429 36728 ft 413 kts 325°
2026-04-20 23:44 63.37449 -12.42657 36735 ft 412 kts 325°
2026-04-20 23:45 63.41829 -12.50924 36737 ft 412 kts 324°
2026-04-20 23:45 63.46179 -12.59140 36736 ft 412 kts 325°
2026-04-20 23:46 63.50559 -12.67429 36725 ft 412 kts 324°
2026-04-20 23:46 63.54921 -12.75744 36738 ft 412 kts 324°
2026-04-20 23:47 63.59268 -12.84091 36740 ft 411 kts 324°
2026-04-20 23:47 63.63613 -12.92453 36741 ft 411 kts 324°
2026-04-20 23:48 63.67954 -13.00826 36741 ft 411 kts 324°
2026-04-20 23:48 63.72258 -13.09157 36739 ft 411 kts 324°
2026-04-20 23:49 63.76586 -13.17588 36720 ft 411 kts 323°
2026-04-20 23:49 63.80905 -13.26023 36739 ft 410 kts 323°
2026-04-20 23:50 63.85210 -13.34482 36742 ft 410 kts 323°
2026-04-20 23:50 63.89512 -13.42966 36723 ft 410 kts 323°
2026-04-20 23:51 63.93784 -13.51413 36717 ft 410 kts 322°
2026-04-20 23:51 63.98082 -13.59959 36719 ft 410 kts 322°
2026-04-20 23:52 64.02377 -13.68538 36720 ft 410 kts 322°
2026-04-20 23:52 64.06670 -13.77136 36722 ft 411 kts 322°
2026-04-20 23:53 64.10955 -13.85766 36726 ft 411 kts 322°
2026-04-20 23:53 64.15236 -13.94428 36727 ft 411 kts 322°
2026-04-20 23:54 64.19485 -14.03063 36728 ft 411 kts 322°
2026-04-20 23:54 64.23756 -14.11773 36728 ft 411 kts 322°
2026-04-20 23:55 64.28028 -14.20516 36729 ft 411 kts 322°
2026-04-20 23:55 64.32293 -14.29279 36722 ft 410 kts 321°
2026-04-20 23:56 64.36537 -14.38065 36729 ft 410 kts 321°
2026-04-20 23:56 64.40746 -14.46823 36732 ft 410 kts 321°
2026-04-20 23:57 64.44983 -14.55627 36718 ft 409 kts 321°
2026-04-20 23:57 64.49217 -14.64469 36720 ft 410 kts 321°
2026-04-20 23:58 64.53450 -14.73384 36715 ft 412 kts 320°
2026-04-20 23:58 64.57697 -14.82350 36708 ft 413 kts 320°
2026-04-20 23:59 64.61949 -14.91372 36718 ft 414 kts 320°
2026-04-20 23:59 64.66169 -15.00362 36728 ft 414 kts 320°
2026-04-21 00:00 64.70417 -15.09440 36737 ft 414 kts 320°
2026-04-21 00:00 64.74660 -15.18574 36747 ft 414 kts 319°
2026-04-21 00:01 64.78897 -15.27728 36754 ft 414 kts 320°
2026-04-21 00:01 64.83135 -15.36890 36759 ft 414 kts 319°
2026-04-21 00:02 64.87357 -15.46095 36771 ft 413 kts 318°
2026-04-21 00:02 64.91539 -15.55246 36774 ft 413 kts 318°
2026-04-21 00:03 64.95742 -15.64477 36783 ft 413 kts 318°
2026-04-21 00:03 64.99936 -15.73737 36776 ft 413 kts 318°
2026-04-21 00:04 65.04126 -15.83021 36768 ft 413 kts 318°
2026-04-21 00:04 65.08316 -15.92351 36773 ft 414 kts 318°
2026-04-21 00:05 65.12495 -16.01716 36772 ft 413 kts 317°
2026-04-21 00:05 65.16643 -16.11038 36633 ft 413 kts 317°
2026-04-21 00:05 65.18734 -16.15786 35935 ft 414 kts 316°
2026-04-21 00:06 65.20781 -16.20464 35692 ft 403 kts 317°
2026-04-21 00:06 65.22794 -16.25021 35302 ft 397 kts 317°
2026-04-21 00:06 65.24792 -16.29528 34873 ft 392 kts 317°
2026-04-21 00:06 65.26765 -16.33979 34379 ft 389 kts 317°
2026-04-21 00:07 65.28716 -16.38401 33871 ft 385 kts 317°
2026-04-21 00:07 65.30649 -16.42800 33381 ft 382 kts 317°
2026-04-21 00:07 65.32559 -16.47170 32904 ft 379 kts 317°
2026-04-21 00:07 65.34422 -16.51453 32425 ft 375 kts 317°
2026-04-21 00:08 65.36294 -16.55773 32004 ft 371 kts 316°
2026-04-21 00:08 65.38146 -16.60052 31570 ft 368 kts 316°
2026-04-21 00:08 65.39979 -16.64287 31132 ft 365 kts 316°
2026-04-21 00:08 65.41799 -16.68501 30675 ft 362 kts 316°
2026-04-21 00:09 65.43605 -16.72691 30148 ft 360 kts 316°
2026-04-21 00:09 65.45399 -16.76859 29652 ft 358 kts 316°
2026-04-21 00:09 65.47180 -16.81010 29156 ft 356 kts 316°
2026-04-21 00:09 65.48952 -16.85148 28671 ft 354 kts 316°
2026-04-21 00:10 65.50717 -16.89271 28194 ft 352 kts 316°
2026-04-21 00:10 65.52472 -16.93377 27548 ft 354 kts 316°
2026-04-21 00:10 65.54250 -16.97549 26606 ft 367 kts 316°
2026-04-21 00:10 65.56087 -17.01868 25952 ft 370 kts 316°
2026-04-21 00:11 65.57928 -17.06211 25417 ft 370 kts 316°
2026-04-21 00:11 65.59766 -17.10550 24904 ft 369 kts 316°
2026-04-21 00:11 65.61600 -17.14882 24382 ft 369 kts 315°
2026-04-21 00:11 65.63429 -17.19213 23827 ft 367 kts 315°
2026-04-21 00:12 65.65244 -17.23531 23468 ft 361 kts 314°
2026-04-21 00:12 65.67001 -17.27729 23322 ft 349 kts 314°
2026-04-21 00:12 65.68701 -17.31798 23183 ft 337 kts 314°
2026-04-21 00:12 65.70377 -17.35649 23044 ft 327 kts 322°
2026-04-21 00:13 65.72344 -17.38186 22908 ft 317 kts 342°
2026-04-21 00:13 65.74493 -17.38915 22776 ft 309 kts
2026-04-21 00:13 65.76546 -17.37922 22574 ft 305 kts 20°
2026-04-21 00:13 65.78370 -17.35332 22301 ft 305 kts 39°
2026-04-21 00:14 65.79742 -17.31424 22044 ft 306 kts 59°
2026-04-21 00:14 65.80513 -17.26612 21791 ft 307 kts 78°
2026-04-21 00:14 65.80589 -17.21434 21532 ft 307 kts 98°
2026-04-21 00:14 65.79977 -17.16439 21109 ft 312 kts 117°
2026-04-21 00:15 65.78681 -17.12169 20537 ft 318 kts 137°
2026-04-21 00:15 65.77005 -17.08569 19978 ft 325 kts 141°
2026-04-21 00:15 65.75220 -17.05114 19426 ft 331 kts 143°
2026-04-21 00:15 65.73375 -17.01700 18859 ft 336 kts 143°
2026-04-21 00:16 65.71494 -16.98248 18235 ft 341 kts 143°
2026-04-21 00:16 65.69629 -16.95058 17641 ft 345 kts 153°
2026-04-21 00:16 65.67347 -16.93311 17054 ft 347 kts 176°
2026-04-21 00:16 65.64988 -16.93696 16477 ft 346 kts 197°
2026-04-21 00:17 65.62825 -16.96147 15896 ft 344 kts 219°
2026-04-21 00:17 65.61190 -17.00313 15334 ft 343 kts 240°
2026-04-21 00:17 65.60303 -17.05613 14774 ft 341 kts 261°
2026-04-21 00:17 65.60274 -17.11295 14181 ft 339 kts 282°
2026-04-21 00:18 65.61083 -17.16595 13479 ft 335 kts 302°
2026-04-21 00:18 65.62593 -17.20760 12672 ft 328 kts 321°
2026-04-21 00:18 65.64383 -17.24121 11892 ft 322 kts 321°
2026-04-21 00:18 65.66135 -17.27435 11131 ft 317 kts 321°
2026-04-21 00:19 65.67822 -17.30651 10822 ft 298 kts 321°
2026-04-21 00:19 65.69388 -17.33644 10709 ft 275 kts 321°
2026-04-21 00:19 65.70915 -17.36032 10713 ft 251 kts 338°
2026-04-21 00:19 65.72572 -17.36812 10737 ft 248 kts 359°
2026-04-21 00:20 65.74252 -17.35947 10729 ft 250 kts 23°
2026-04-21 00:20 65.75666 -17.33499 10726 ft 253 kts 47°
2026-04-21 00:20 65.76561 -17.29842 10724 ft 257 kts 71°
2026-04-21 00:20 65.76768 -17.25511 10732 ft 259 kts 96°
2026-04-21 00:21 65.76233 -17.21355 10731 ft 260 kts 121°
2026-04-21 00:21 65.75057 -17.18046 10736 ft 260 kts 140°
2026-04-21 00:21 65.73663 -17.15238 10734 ft 261 kts 143°
2026-04-21 00:21 65.72232 -17.12530 10731 ft 261 kts 143°
2026-04-21 00:22 65.70792 -17.09847 10733 ft 261 kts 143°
2026-04-21 00:22 65.69356 -17.07167 10732 ft 261 kts 144°
2026-04-21 00:22 65.67794 -17.05143 10736 ft 257 kts 167°
2026-04-21 00:22 65.66035 -17.04818 10740 ft 253 kts 191°
2026-04-21 00:23 65.64393 -17.06177 10740 ft 249 kts 215°
2026-04-21 00:23 65.63130 -17.08932 10740 ft 244 kts 237°
2026-04-21 00:23 65.62413 -17.12596 10736 ft 240 kts 259°
2026-04-21 00:23 65.62327 -17.16593 10729 ft 239 kts 280°
2026-04-21 00:24 65.62871 -17.20359 10734 ft 238 kts 302°
2026-04-21 00:24 65.63951 -17.23386 10738 ft 239 kts 317°
2026-04-21 00:24 65.65227 -17.25989 10735 ft 240 kts 320°
2026-04-21 00:24 65.66544 -17.28483 10728 ft 241 kts 321°
2026-04-21 00:25 65.67908 -17.31018 10723 ft 247 kts 321°
2026-04-21 00:25 65.69255 -17.33513 10727 ft 247 kts 319°
2026-04-21 00:25 65.70464 -17.36451 10727 ft 246 kts 307°
2026-04-21 00:25 65.71509 -17.39736 10718 ft 247 kts 307°
2026-04-21 00:26 65.72558 -17.43038 10537 ft 246 kts 307°
2026-04-21 00:26 65.73601 -17.46328 10270 ft 246 kts 307°
2026-04-21 00:26 65.74291 -17.48511 10031 ft 246 kts 307°
2026-04-21 00:26 65.75683 -17.52927 9531 ft 245 kts 307°
2026-04-21 00:27 65.76368 -17.55105 9285 ft 245 kts 306°
2026-04-21 00:27 65.77400 -17.58394 8928 ft 244 kts 306°
2026-04-21 00:27 65.78425 -17.61666 8568 ft 242 kts 306°
2026-04-21 00:27 65.79444 -17.64915 8216 ft 240 kts 306°
2026-04-21 00:28 65.80454 -17.68136 7870 ft 238 kts 306°
2026-04-21 00:28 65.81781 -17.72390 7373 ft 238 kts 306°
2026-04-21 00:28 65.82456 -17.74557 7131 ft 237 kts 306°
2026-04-21 00:28 65.83439 -17.77782 6743 ft 237 kts 301°
2026-04-21 00:29 65.84117 -17.81368 6366 ft 237 kts 285°
2026-04-21 00:29 65.84344 -17.85318 5983 ft 235 kts 269°
2026-04-21 00:29 65.84316 -17.89322 5600 ft 236 kts 268°
2026-04-21 00:29 65.84289 -17.93316 5214 ft 235 kts 268°
2026-04-21 00:30 65.84263 -17.97318 4852 ft 236 kts 268°
2026-04-21 00:30 65.84239 -18.01211 4530 ft 221 kts 268°
2026-04-21 00:30 65.84215 -18.04820 4150 ft 206 kts 266°
2026-04-21 00:30 65.83873 -18.08049 3745 ft 191 kts 240°
2026-04-21 00:31 65.83011 -18.10319 3409 ft 178 kts 213°
2026-04-21 00:31 65.81878 -18.11313 3007 ft 173 kts 186°
2026-04-21 00:31 65.80682 -18.11127 2610 ft 172 kts 174°
2026-04-21 00:31 65.79555 -18.10775 2497 ft 157 kts 174°
2026-04-21 00:32 65.78494 -18.10462 2496 ft 151 kts 174°
2026-04-21 00:32 65.77456 -18.10164 2506 ft 149 kts 174°
2026-04-21 00:32 65.76427 -18.09871 2489 ft 149 kts 174°
2026-04-21 00:32 65.75390 -18.09578 2123 ft 151 kts 173°
2026-04-21 00:33 65.74354 -18.09284 1785 ft 148 kts 173°
2026-04-21 00:33 65.73334 -18.08992 1461 ft 147 kts 172°
2026-04-21 00:33 65.72319 -18.08696 1154 ft 146 kts 172°
2026-04-21 00:33 65.71315 -18.08378 908 ft 144 kts 174°
2026-04-21 00:34 65.70334 -18.08139 767 ft 141 kts 175°
2026-04-21 00:34 65.69355 -18.07887 568 ft 140 kts 176°
2026-04-21 00:34 65.68398 -18.07700 372 ft 138 kts 176°
2026-04-21 00:34 65.67434 -18.07532 179 ft 138 kts 177°
2026-04-21 00:35 65.66476 -18.07357 37 ft 137 kts 176°
2026-04-21 00:35 65.65562 -18.07185 19 ft 138 kts 175°
2026-04-21 00:35 65.64496 -18.06999 619 ft 156 kts 176°
2026-04-21 00:35 65.63419 -18.06807 1457 ft 159 kts 175°
2026-04-21 00:36 65.62233 -18.06575 2155 ft 183 kts 176°
2026-04-21 00:36 65.60894 -18.06424 2910 ft 203 kts 188°
2026-04-21 00:36 65.59454 -18.07305 3599 ft 227 kts 199°
2026-04-21 00:36 65.57945 -18.08758 4541 ft 238 kts 212°
2026-04-21 00:37 65.56770 -18.11650 5490 ft 244 kts 243°
2026-04-21 00:37 65.56367 -18.15571 6408 ft 244 kts 272°
2026-04-21 00:37 65.56803 -18.19607 6862 ft 256 kts 299°
2026-04-21 00:37 65.57970 -18.22760 6986 ft 259 kts 324°
2026-04-21 00:38 65.59603 -18.24596 7011 ft 260 kts 339°
2026-04-21 00:38 65.61315 -18.26000 7007 ft 260 kts 341°
2026-04-21 00:38 65.63062 -18.27171 7009 ft 261 kts 344°
2026-04-21 00:38 65.64822 -18.28240 7008 ft 261 kts 344°
2026-04-21 00:39 65.66586 -18.29298 7007 ft 261 kts 344°
2026-04-21 00:39 65.68347 -18.30356 7009 ft 261 kts 344°
2026-04-21 00:39 65.70107 -18.31413 7008 ft 261 kts 344°
2026-04-21 00:39 65.71866 -18.32471 7008 ft 261 kts 344°
2026-04-21 00:40 65.73626 -18.33529 7007 ft 261 kts 344°
2026-04-21 00:40 65.75393 -18.34599 6807 ft 262 kts 344°
2026-04-21 00:40 65.77191 -18.35188 6390 ft 262 kts
2026-04-21 00:40 65.78913 -18.33864 5935 ft 259 kts 25°
2026-04-21 00:41 65.80456 -18.31845 5467 ft 252 kts 27°
2026-04-21 00:41 65.81927 -18.29592 4969 ft 249 kts 39°
2026-04-21 00:41 65.82900 -18.26190 4473 ft 245 kts 73°
2026-04-21 00:41 65.83060 -18.22119 3971 ft 241 kts 97°
2026-04-21 00:42 65.82635 -18.18201 3534 ft 233 kts 117°
2026-04-21 00:42 65.81813 -18.15054 3374 ft 208 kts 132°
2026-04-21 00:42 65.80813 -18.12826 3171 ft 183 kts 147°
2026-04-21 00:42 65.79753 -18.11396 2979 ft 167 kts 159°
2026-04-21 00:43 65.78679 -18.10593 2761 ft 156 kts 171°
2026-04-21 00:43 65.77632 -18.10245 2546 ft 150 kts 174°
2026-04-21 00:43 65.76606 -18.09936 2299 ft 147 kts 174°
2026-04-21 00:43 65.75592 -18.09641 2050 ft 146 kts 173°
2026-04-21 00:44 65.74599 -18.09357 1807 ft 145 kts 173°
2026-04-21 00:44 65.73598 -18.09073 1572 ft 145 kts 173°
2026-04-21 00:44 65.72600 -18.08795 1353 ft 143 kts 173°
2026-04-21 00:45 65.70630 -18.08274 953 ft 142 kts 174°
2026-04-21 00:45 65.69656 -18.08031 748 ft 140 kts 175°
2026-04-21 00:45 65.68688 -18.07780 492 ft 139 kts 176°
2026-04-21 00:45 65.67728 -18.07596 273 ft 138 kts 177°
2026-04-21 00:46 65.66774 -18.07415 56 ft 137 kts 175°
2026-04-21 00:46 65.65896 -18.07247 17 ft 91 kts 175°
2026-04-21 00:46 65.65649 -18.07201 18 ft 21 kts 175°
2026-04-21 00:46 65.65526 -18.07179 17 ft 7 kts 176°
2026-04-21 00:47 65.65483 -18.07255 16 ft 8 kts 239°
2026-04-21 00:47 65.65478 -18.07364 17 ft 5 kts 265°
2026-04-21 00:47 65.65484 -18.07425 17 ft 3 kts 310°
2026-04-21 00:47 65.65493 -18.07463 20 ft 3 kts 283°
2026-04-21 00:48 65.65477 -18.07480 17 ft 2 kts 181°
2026-04-21 00:48 65.65469 -18.07481 19 ft 0 kts 181°
2026-04-21 00:49 65.65482 -18.07487 17 ft 0 kts 12°